Location: Bothwell
(41.7170°N, 112.2589°W)
Time: 01:44:20
(UTC+00:00)

Tiros 1 - Pass Details

Date: 19 May 2026
Orbit: 618 x 649 km, 48.4° (Epoch: 6 June)

Event Time Altitude Azimuth Distance (km) Brightness Sun altitude
Rises 12:04:32 0° 293° (WNW) 2,896 10.1 -1.0°
Reaches altitude 10° 12:07:02 10° 283° (WNW) 1,984 9.2 -0.6°
Maximum altitude 12:11:02 31° 221° (SW) 1,088 7.9 0.1°
Drops below altitude 10° 12:15:01 10° 159° (SSE) 1,969 9.6 0.8°
Sets 12:17:30 0° 149° (SSE) 2,870 10.5 1.2°
